Theta_e
300 300 301 301 301 300 300 301 301 301 301 301 302 302 303 303 303 303 304 304 304 304 302 304 305 306 306 306 309 308 312 314 315 321 324 322 317 320 324 325 326 333 336 335 333 336 334 339 339 330 326 336 333 332
300 300 300 300 300 301 301 301 301 301 301 301 301 301 302 302 303 302 303 303 302 303 304 304 305 305 306 306 307 307 312 312 313 313 316 319 329 321 318 325 329 333 332 339 335 334 336 335 336 332 333 334 335 337
299 299 300 300 300 300 301 301 301 301 302 300 301 301 302 302 301 301 303 302 302 301 303 302 304 304 304 305 306 309 314 315 313 309 311 318 326 325 327 331 330 331 331 339 338 339 334 331 327 329 331 333 334 333
299 298 300 301 301 301 301 302 301 301 301 301 300 301 302 301 301 301 303 302 303 304 306 304 306 306 307 307 305 306 309 310 310 310 313 315 323 323 329 328 329 328 333 337 336 335 331 326 324 325 325 325 326 327
298 301 301 301 300 301 301 301 301 301 300 300 299 299 301 301 301 302 301 301 302 303 308 306 305 307 308 306 307 306 307 309 313 318 319 323 323 327 326 326 330 326 333 338 342 336 332 327 324 323 323 322 322 322
299 300 301 301 300 301 302 301 299 300 301 301 300 300 301 301 301 301 300 304 303 303 306 309 304 305 308 307 308 307 308 313 317 319 319 319 317 326 330 330 327 325 325 327 332 327 325 324 322 323 321 320 319 319
299 299 300 300 300 301 303 302 301 299 299 300 301 300 300 301 301 300 303 303 304 304 307 311 309 308 309 307 308 312 315 316 319 320 319 318 318 322 325 330 327 325 326 325 324 322 324 323 324 322 322 322 320 318
299 299 299 299 299 301 303 303 303 302 299 299 301 300 300 301 301 302 302 302 302 304 306 311 312 312 310 309 310 314 317 319 320 322 321 320 319 322 331 324 327 324 323 324 324 323 323 323 322 322 322 321 320 318
299 299 299 299 300 302 303 303 303 302 302 301 302 301 302 302 300 303 305 304 303 305 310 312 316 317 312 310 310 310 316 321 320 320 322 319 318 322 327 325 322 320 323 323 322 322 324 324 326 326 325 323 321 319
300 300 301 301 302 301 301 303 303 303 303 303 302 304 306 304 306 306 306 303 304 304 304 310 309 314 312 311 312 312 313 321 324 321 321 316 319 317 315 315 313 313 313 315 320 320 320 323 324 326 326 325 325 325
301 301 302 302 300 300 301 301 301 302 303 304 305 305 305 306 307 306 310 309 308 311 311 310 311 313 311 317 314 313 315 316 323 322 323 320 323 319 315 314 312 313 315 315 316 317 320 322 323 325 325 325 326 326
302 303 303 302 301 302 303 303 303 303 303 304 303 304 304 308 309 312 314 315 311 312 313 314 314 313 314 314 318 316 318 319 320 318 322 327 323 320 320 320 318 315 318 320 322 322 321 323 323 323 323 323 323 324
304 304 302 302 303 303 304 304 305 306 305 306 305 307 311 310 314 316 317 313 313 318 316 316 318 316 314 314 315 315 320 319 316 325 329 326 321 321 322 323 323 322 323 323 324 324 324 323 323 323 321 322 323 323
304 304 304 303 304 304 304 304 306 307 307 309 312 309 309 316 314 315 315 313 313 316 317 317 318 314 314 314 315 318 316 317 322 329 329 324 322 321 322 322 324 323 323 323 323 323 322 321 320 320 320 320 321 321
303 304 304 304 305 305 305 308 309 309 309 312 310 308 309 312 313 314 316 317 315 315 314 313 313 315 315 314 314 318 321 327 328 329 324 323 320 319 319 321 322 323 322 321 321 321 320 319 318 317 318 318 318 320
303 305 304 305 305 306 308 309 309 309 310 311 313 315 314 315 314 313 312 312 311 312 314 317 318 318 320 320 322 324 325 326 324 323 319 316 317 318 316 317 320 321 320 319 319 319 318 317 316 316 316 315 316 317
304 304 304 306 306 307 309 309 309 309 311 312 314 311 310 310 310 309 308 310 310 312 315 316 321 321 319 322 324 321 323 320 317 313 312 312 313 315 313 315 318 321 320 320 319 318 318 318 316 314 312 314 315 317
303 304 306 306 307 307 309 308 307 308 311 307 307 307 306 306 307 308 308 308 309 310 313 317 315 319 321 323 319 314 312 311 310 310 310 311 311 311 313 316 319 321 319 319 319 318 318 317 314 312 313 314 316 317
303 305 306 306 307 307 305 307 306 307 306 304 303 303 303 304 305 306 306 307 307 307 310 312 318 318 316 317 315 314 314 315 317 317 317 318 318 315 314 317 319 320 319 318 317 317 318 318 318 317 315 313 311 312
306 307 305 306 307 307 306 305 306 304 305 305 307 307 307 308 309 306 307 308 307 309 313 317 318 317 317 317 316 317 317 316 318 318 318 316 317 317 317 318 318 320 319 319 319 319 319 319 319 319 320 318 315 314
306 306 306 306 306 306 302 302 307 306 306 307 308 308 310 310 312 312 312 312 312 313 315 313 314 314 314 315 315 315 316 316 316 317 317 316 315 316 317 319 320 319 317 317 315 317 317 316 318 318 318 318 319 318
306 306 304 304 304 304 303 304 304 304 306 307 309 308 311 313 313 315 312 314 315 314 312 313 314 315 316 316 316 315 316 315 316 316 316 316 317 318 317 316 318 318 319 319 319 318 319 319 317 315 317 318 314 314
307 306 306 304 306 303 305 304 307 305 310 310 309 314 315 316 316 314 318 314 313 313 314 313 314 315 314 315 316 317 318 317 316 316 317 316 316 317 318 319 319 318 316 318 317 317 320 319 313 313 314 314 313 312
307 306 308 308 307 310 309 311 306 309 312 313 317 319 317 315 313 316 319 317 313 313 313 313 313 313 313 313 312 314 317 318 318 319 318 317 318 317 318 318 317 317 319 320 318 316 315 314 314 312 313 315 315 314
311 312 310 308 312 316 319 319 318 317 319 316 319 319 317 313 318 317 317 316 313 311 310 311 313 312 312 309 307 312 319 319 317 314 314 317 316 315 314 315 314 312 313 314 312 313 312 313 314 316 315 315 314 314
310 315 313 320 318 318 319 321 321 320 319 321 319 316 316 316 321 320 318 317 315 312 312 311 310 312 312 311 310 310 313 318 317 314 313 313 314 313 312 310 309 312 313 313 313 312 311 311 310 312 315 313 311 311
316 320 316 312 317 319 318 317 315 316 319 321 317 316 316 319 320 319 316 313 315 313 313 313 313 312 311 312 313 313 314 314 313 313 313 313 313 313 312 312 311 312 312 312 313 312 312 312 312 312 311 311 310 310
320 319 322 319 320 317 318 318 319 318 316 313 315 318 320 320 319 317 315 315 315 314 314 314 314 314 313 312 312 312 313 313 313 313 313 313 311 309 310 310 310 310 310 310 309 310 310 310 310 310 311 310 310 312
321 320 318 321 321 321 320 320 319 317 316 313 316 317 316 315 315 315 315 315 314 314 312 311 310 309 309 309 310 309 310 311 312 309 308 306 305 306 307 308 308 308 308 308 308 309 310 310 311 312 312 312 313 312
321 317 320 321 318 319 319 318 319 317 318 318 315 315 316 315 314 313 312 312 310 308 307 307 306 307 307 307 306 306 306 305 306 306 304 303 303 303 304 304 305 307 307 307 309 309 310 311 311 310 309 309 310 311
318 318 320 319 318 315 316 316 316 315 317 318 315 316 317 317 312 310 309 308 306 306 305 304 304 305 306 305 305 304 302 302 301 301 301 302 302 302 302 302 302 303 304 304 303 301 302 302 303 304 304 304 305 305
317 319 320 319 319 317 316 314 313 315 318 319 319 318 317 316 314 309 306 306 304 303 302 302 302 303 302 301 301 302 303 299 300 299 299 300 300 298 298 298 298 298 298 297 297 297 298 298 299 299 299 299 300 302
317 317 315 315 316 319 316 316 316 315 317 320 319 317 314 316 317 314 304 302 302 301 300 300 301 299 299 298 298 298 298 297 297 297 297 297 297 297 296 295 295 294 294 294 295 295 295 295 294 295 295 297 298 298
Wind_Speed
21 20 21 18 17 17 17 16 16 15 15 15 15 14 14 14 12 9 8 10 12 4 8 11 14 12 8 3 5 5 7 4 4 5 2 2 4 7 5 6 8 7 7 5 3 2 4 5 4 11 8 3 8 7
21 20 19 19 19 21 21 21 21 21 20 19 17 16 15 14 13 10 6 9 11 5 7 24 29 28 25 20 3 3 3 1 4 3 4 4 4 3 6 4 2 3 6 6 6 4 4 7 4 3 3 5 6 12
21 21 22 22 23 24 25 24 24 23 25 22 17 16 13 14 14 11 15 15 8 3 7 8 14 36 38 38 36 4 3 5 3 2 3 3 6 1 2 3 5 6 5 5 6 4 5 11 7 14 18 17 18 19
23 24 24 25 25 26 25 25 21 23 20 13 14 12 12 13 13 11 13 13 5 3 4 6 7 11 16 25 35 36 17 8 6 3 4 4 4 1 2 4 4 2 3 6 4 4 4 8 8 16 19 19 19 16
22 24 26 24 22 23 21 20 18 15 12 8 8 11 13 11 11 11 17 20 18 5 4 8 25 26 13 29 18 27 16 2 3 3 2 4 4 3 3 2 3 1 4 5 5 7 10 4 7 9 19 15 15 15
23 25 24 22 25 29 21 15 14 12 11 7 7 7 8 7 6 5 3 2 13 15 4 4 6 6 9 16 20 16 8 6 2 2 6 5 4 2 1 3 4 4 3 6 5 4 13 7 11 17 17 11 10 14
23 24 24 24 25 26 27 16 13 12 9 7 6 7 7 5 6 3 3 3 8 15 2 3 4 5 2 14 7 6 3 3 2 3 4 4 4 2 1 3 2 5 9 12 9 22 13 7 6 8 17 16 10 10
23 23 24 23 24 24 24 18 16 9 7 7 7 7 5 6 10 10 15 13 15 4 2 3 4 5 2 3 4 4 4 2 2 1 4 4 4 1 3 3 0 8 15 15 12 12 11 6 8 6 7 10 9 7
23 23 23 22 22 20 20 18 15 13 10 9 8 6 4 4 3 5 4 11 14 5 3 2 3 3 5 1 3 3 3 3 1 3 4 5 3 1 6 6 6 6 8 12 10 11 8 10 4 1 5 4 6 5
22 22 22 21 20 18 18 16 15 16 16 10 6 3 2 5 10 6 2 1 0 2 1 3 3 3 0 1 2 3 2 3 2 2 5 2 2 1 8 4 6 10 11 10 14 8 8 7 9 9 10 6 6 6
22 21 21 20 20 18 17 17 18 19 3 1 2 2 7 8 2 2 2 3 3 3 3 4 5 3 2 3 4 4 4 3 3 4 2 4 4 5 8 6 4 8 10 9 10 7 9 10 8 9 8 7 7 8
22 21 20 18 20 23 24 23 20 14 8 7 9 9 5 2 2 3 2 2 3 3 3 3 4 5 3 2 1 2 2 2 5 7 2 3 4 5 6 4 5 8 11 10 12 11 9 10 10 8 6 5 7 8
23 20 17 20 25 31 31 27 20 17 9 1 2 2 2 2 2 3 2 0 2 2 3 3 3 3 2 3 2 2 3 3 4 3 3 1 4 5 3 6 9 9 10 9 8 10 13 12 13 13 7 8 7 6
25 23 19 23 33 34 31 25 21 11 1 1 3 5 5 4 5 3 5 3 3 4 7 5 3 3 3 4 1 4 2 3 3 4 3 1 4 5 6 6 11 7 7 8 8 8 8 10 9 10 8 5 4 3
28 23 17 24 33 33 25 19 13 6 4 4 3 4 3 2 5 6 5 4 4 4 3 2 2 2 2 3 4 5 5 5 4 2 2 2 4 7 8 6 6 5 5 5 5 6 7 8 7 7 5 4 2 2
28 14 13 28 32 29 17 14 7 3 2 3 4 4 7 3 8 6 3 4 5 7 2 2 3 3 4 3 5 4 3 4 2 2 1 3 5 4 4 5 5 3 6 6 8 8 8 6 5 5 4 4 2 1
20 8 25 26 30 22 12 9 6 3 2 3 3 3 5 3 4 4 3 5 7 3 4 3 6 5 4 4 5 4 3 1 2 3 3 3 4 4 4 3 3 5 7 9 7 6 6 8 7 6 4 3 3 3
11 25 21 24 26 16 8 9 4 4 6 3 3 5 5 3 4 4 5 4 5 4 3 3 1 6 4 3 3 3 3 3 3 3 3 5 5 5 5 2 1 5 8 8 9 7 7 6 6 3 4 2 1 1
23 18 19 19 17 5 3 6 5 3 2 3 4 4 3 4 4 5 4 4 3 2 3 3 5 3 3 2 1 3 3 2 3 3 3 6 5 4 5 4 3 7 9 9 8 7 6 5 4 5 3 3 3 1
11 9 18 11 9 3 4 4 6 3 3 3 3 5 4 4 6 4 4 4 3 3 6 4 3 3 2 3 2 3 3 4 3 4 4 6 11 8 5 6 7 10 9 6 4 3 4 3 4 6 7 7 4 3
7 13 9 11 6 6 3 2 2 1 3 2 3 4 4 4 3 4 5 4 4 3 2 1 1 3 2 8 9 6 4 4 5 2 3 4 8 9 10 14 13 8 3 1 1 3 3 7 8 6 9 11 10 13
7 12 6 6 5 3 3 1 1 2 1 3 3 3 3 3 5 5 5 4 3 1 1 1 1 2 3 5 4 10 15 15 6 2 7 8 4 5 4 9 8 3 6 5 7 9 10 10 7 4 10 12 9 11
7 5 5 5 3 4 2 2 2 3 3 4 3 3 3 3 4 4 4 2 3 3 4 4 5 5 7 14 13 17 14 8 5 5 5 5 5 6 8 11 13 11 7 15 8 9 11 7 6 5 5 8 7 8
5 4 3 3 2 2 2 3 2 3 3 3 3 3 4 3 3 2 1 3 4 4 3 4 5 5 4 2 0 3 5 3 4 8 6 4 4 3 4 2 2 5 11 12 10 7 6 8 6 7 7 7 6 8
3 4 3 4 1 2 3 3 2 2 1 2 1 2 3 3 5 5 4 5 4 3 4 4 4 4 3 4 4 12 8 4 3 4 15 3 3 10 10 7 9 13 11 5 3 3 7 9 6 5 9 7 8 8
2 3 2 2 1 1 2 1 3 4 3 3 2 2 1 3 3 3 4 4 3 3 4 4 3 7 8 11 5 7 14 5 5 4 14 18 19 7 3 4 4 11 16 15 13 11 9 9 6 4 2 6 8 9
6 3 2 4 2 2 3 2 1 0 2 2 1 2 2 4 5 3 3 4 2 8 8 16 19 14 8 12 14 20 22 19 16 15 23 25 24 23 21 12 9 14 16 14 14 12 12 14 10 8 7 6 3 2
3 3 5 8 4 2 3 3 4 5 4 4 2 3 2 3 3 3 2 10 16 23 23 24 22 20 19 18 19 19 16 16 13 13 13 17 21 23 21 18 17 15 15 17 18 16 16 15 15 15 11 8 7 3
3 3 2 5 4 4 3 3 3 3 3 2 2 1 2 2 2 3 12 13 16 22 21 19 23 23 23 21 20 22 19 15 12 8 8 5 6 16 19 18 18 18 19 19 18 15 13 12 11 8 5 4 4 4
3 1 2 3 3 2 1 1 2 4 4 5 4 3 5 7 12 16 20 24 22 18 21 23 25 24 18 16 11 18 18 19 17 12 4 4 7 15 18 18 18 17 16 15 9 11 10 10 12 14 14 14 14 13
3 2 2 2 2 2 2 1 2 1 2 3 4 4 2 3 10 23 20 21 24 25 24 22 21 20 18 18 13 9 10 17 16 15 13 12 13 13 13 14 15 14 13 13 14 16 14 14 14 13 13 14 13 14
2 0 2 1 1 1 1 2 2 2 2 2 2 1 3 3 4 4 19 18 22 21 20 19 16 12 13 14 18 14 10 17 11 14 12 11 9 10 12 13 13 14 15 16 16 17 16 16 16 16 16 15 15 13
3 1 1 1 2 2 2 3 2 2 3 3 3 3 6 5 3 2 9 17 16 15 16 15 11 10 14 15 16 15 13 13 11 13 13 11 9 10 12 14 17 18 18 17 17 17 17 18 19 20 20 18 17 18
Wind_Direction
328 325 325 319 320 324 319 314 307 299 294 288 284 283 284 288 290 281 261 239 227 249 274 270 270 263 266 241 265 319 330 359 320 349 331 237 222 219 121 167 171 151 146 157 153 88 276 24 302 152 204 335 147 149
331 328 328 325 317 315 311 307 302 295 289 283 278 271 280 279 284 280 260 264 256 229 265 280 268 257 245 242 225 257 283 233 251 3 4 322 294 293 152 173 344 134 177 149 154 214 316 318 291 330 189 126 110 95
334 331 327 322 316 311 307 304 301 300 283 272 270 266 271 275 275 268 266 278 275 250 269 249 245 253 247 238 227 220 230 206 263 135 270 262 265 134 149 163 124 10 28 105 114 7 30 341 16 70 80 86 96 102
332 331 331 328 325 316 311 310 307 309 308 268 260 258 271 277 273 270 257 262 240 283 276 280 295 266 250 246 217 214 233 330 336 268 212 254 250 3 284 140 106 209 11 113 66 125 95 51 14 92 83 90 90 92
336 337 333 332 334 332 331 325 325 329 326 306 251 256 278 277 278 269 268 263 247 201 305 297 298 285 258 221 214 201 205 262 292 310 291 254 258 304 330 70 45 8 151 140 202 196 128 171 105 65 88 91 102 101
340 340 347 343 339 342 339 321 330 342 346 325 291 280 280 274 274 303 313 340 212 206 273 292 290 283 313 167 167 160 169 210 236 310 286 255 264 154 95 72 333 337 231 204 139 78 94 116 103 105 100 85 87 121
338 340 343 345 341 346 350 337 317 314 329 335 321 299 280 260 263 207 237 299 206 323 261 267 282 273 355 119 107 121 145 222 141 262 236 262 270 109 98 93 234 18 103 85 85 109 76 45 75 79 106 95 55 65
339 340 343 345 347 350 2 358 1 343 318 324 322 310 283 268 274 267 265 239 252 247 255 274 271 316 296 132 119 137 162 172 100 274 291 254 312 95 66 301 251 94 86 79 80 79 104 111 90 78 85 84 102 95
337 339 342 347 355 358 4 10 21 18 3 343 327 303 283 229 235 256 281 228 224 213 294 290 301 288 346 331 103 152 133 152 93 6 265 320 320 37 174 168 135 148 123 130 102 93 97 101 114 113 108 153 132 172
339 341 345 349 353 354 358 357 349 336 329 321 333 327 250 221 307 275 209 59 71 230 246 253 256 257 71 332 156 124 163 149 107 253 296 223 4 89 19 2 113 106 115 127 113 115 120 97 113 100 94 99 97 63
339 341 343 345 348 350 347 338 334 339 348 310 231 238 288 313 195 215 226 196 173 224 214 237 214 248 248 185 197 204 171 158 99 219 139 17 9 329 354 22 57 104 98 86 91 90 95 106 101 92 74 70 76 75
341 340 341 343 345 346 345 342 339 334 313 294 291 298 297 291 230 265 246 162 188 257 230 217 237 203 274 187 216 239 117 107 169 149 116 45 316 329 3 40 38 82 97 97 110 115 116 114 123 116 112 103 94 88
347 340 340 347 348 344 343 342 338 326 320 153 181 233 254 274 291 272 284 98 310 255 285 310 315 225 270 209 237 79 136 75 107 64 75 38 299 334 341 70 65 65 89 98 88 93 107 100 103 109 111 116 113 84
348 338 326 342 344 342 339 338 341 346 106 43 341 356 8 6 11 313 304 263 207 251 276 292 248 307 311 343 284 64 10 103 79 76 87 240 336 352 18 35 62 51 69 88 88 88 87 88 82 82 77 62 62 54
344 334 327 335 338 341 341 343 346 20 11 32 70 4 310 271 249 282 300 294 285 256 250 202 240 283 298 335 34 44 31 56 39 80 80 22 6 14 22 22 47 71 87 84 91 93 93 98 87 71 45 36 46 31
344 335 333 339 341 344 342 346 347 9 81 19 31 339 329 321 349 342 311 306 317 318 274 7 22 42 64 60 45 19 53 44 42 37 87 360 1 9 11 360 13 75 106 106 110 117 118 101 99 106 94 76 103 125
340 331 336 340 343 346 357 348 345 7 52 24 7 22 331 266 302 302 302 317 325 360 16 17 35 354 317 37 33 31 51 331 346 316 306 287 283 289 307 333 17 90 107 123 129 131 110 101 88 83 68 53 66 75
323 335 340 344 346 348 357 9 15 16 25 1 5 330 317 271 298 313 318 320 358 5 16 56 82 34 32 36 30 334 322 289 255 256 262 272 269 264 251 252 20 137 142 144 151 146 141 120 87 69 70 82 116 147
325 329 337 345 344 334 5 7 28 54 358 335 313 314 319 294 281 295 292 302 295 312 54 30 42 29 24 27 325 302 296 294 316 327 317 332 335 233 214 197 168 152 146 141 148 153 167 176 175 193 186 101 91 33
329 333 336 350 355 17 33 0 16 47 18 304 297 329 303 283 310 304 321 357 18 49 37 39 25 3 30 345 325 319 330 351 355 23 354 360 8 47 108 149 143 152 150 148 146 197 203 238 253 248 234 233 236 261
350 352 357 3 16 55 89 3 40 9 317 319 318 326 300 318 336 343 345 336 57 48 80 130 288 310 315 300 318 340 336 17 23 353 324 333 352 18 83 94 109 113 109 166 256 294 291 270 279 294 255 241 248 248
331 338 340 8 39 41 80 9 209 294 277 290 321 337 342 350 333 357 319 23 43 349 182 217 193 195 283 314 330 313 293 306 320 348 346 12 15 15 17 35 48 22 348 278 267 263 277 298 299 288 237 243 255 237
333 341 342 359 23 37 297 338 51 9 15 337 342 20 355 356 326 338 7 327 267 249 246 238 243 221 232 268 268 272 282 259 285 320 305 298 281 248 239 250 250 254 275 286 293 265 258 263 237 256 229 232 222 224
321 347 358 359 62 328 314 350 48 4 328 10 20 26 349 315 337 61 107 300 285 307 314 320 321 322 338 5 172 261 294 281 284 307 308 288 322 336 176 223 294 285 259 269 286 280 274 262 258 203 194 202 230 232
346 336 50 330 251 15 343 337 354 358 317 230 4 339 334 15 16 27 356 312 325 319 328 11 43 42 35 325 341 16 42 46 59 358 2 313 21 13 30 49 53 34 37 36 11 316 325 327 265 263 253 262 276 275
40 231 128 301 303 177 243 245 217 228 206 203 237 128 96 94 48 342 306 309 326 343 348 359 4 65 52 35 20 5 7 23 32 37 20 37 35 48 87 40 26 34 46 44 38 28 1 354 346 16 299 294 336 333
358 342 296 218 232 220 287 286 195 79 3 37 116 106 80 60 31 328 305 320 329 346 29 69 69 66 54 61 54 56 58 62 73 69 65 59 57 56 51 41 20 11 15 26 26 27 30 8 354 354 346 343 354 333
276 302 9 320 338 357 9 25 29 11 336 338 37 52 89 91 190 252 269 65 77 83 74 68 60 54 46 40 37 34 31 28 31 43 60 61 45 38 39 43 43 36 29 21 15 8 1 353 340 341 337 314 313 317
247 304 349 331 31 52 50 36 8 327 298 287 90 78 86 95 304 21 90 90 79 68 54 47 45 51 48 49 51 49 40 33 42 50 40 10 356 10 16 16 13 10 5 359 353 354 352 345 338 344 15 10 4 41
281 316 75 34 27 4 321 22 345 328 346 354 359 44 38 25 32 83 75 71 67 68 60 54 43 39 28 28 36 48 52 53 57 63 65 18 346 357 2 360 356 353 353 2 16 18 24 44 49 45 37 32 27 23
291 51 71 104 205 259 283 296 308 9 96 84 52 52 6 280 57 63 56 72 69 58 49 40 37 34 39 34 29 43 43 46 44 41 33 22 12 10 14 18 18 22 33 50 50 43 42 38 28 18 17 12 6 0
10 91 149 251 281 277 49 26 16 47 79 79 86 234 334 345 34 58 26 58 59 52 44 38 37 33 48 49 41 47 77 39 41 37 31 24 33 43 30 26 28 33 39 43 40 38 37 34 27 20 16 8 2 349
316 334 114 38 22 234 216 134 93 68 30 45 58 52 21 1 19 227 62 55 55 48 40 37 52 61 48 45 40 41 39 28 34 26 19 19 36 48 51 47 45 43 42 41 42 41 38 34 31 29 29 30 34 33